Find Starlink 33780

NORAD ID: 63459 Int'l Des: 2025-069 Owner: SPXS Country: US Constellation: starlink operational
LEOCIRCULAR

現在のビュー

3D地球を読み込み中...

About Starlink 33780

Starlink 33780 (NORAD 63459) is a starlink constellation satellite (v2 mini) launched Apr 4, 2025 by SPXS of US. It operates in LEO, CIRCULAR orbit with a mass of 575.00 kg.

Starlink 33780について

説明を読み込み中...

次回通過

Passes for default location (London). Set your location on the main map for personalized predictions.

高度履歴

Loading altitude history...

軌道要素

1 63459U 25069AC 26178.19916522 .00034894 00000-0 10393-2 0 9994
2 63459 53.1606 348.6387 0000310 114.9186 245.1849 15.34394905 70130
Epoch: Jun 27, 2026 • Age: 14 hours

現在のステータス

高度 481.2 km
速度 7.62 km/s
衛星直下点 -52.97°S, 54.58°E
打ち上げ日 Apr 4, 2025
運用期間 1.2 years
タイプ internet

技術仕様

分類 Payload
質量 575.00 kg
乾燥質量 530.00 kg
総質量 575.00 kg
長さ 0.30 m
直径 4.10 m
スパン 29.00 m
形状 Box + pan
製造者 SPXS
バスタイプ Starlink V2MO
フェーズステータス In Orbit
所有者/国 SPXS/US

Most Searched